Location: Tamazert
(32.6352°N, 5.2072°W)
Time: 17:37:55
(UTC+00:00)

Transit 2A Rocket - Pass Details

Date: 03 October 2022
Orbit: 589 x 912 km, 66.7° (Epoch: 07 December)

Event Time Altitude Azimuth Distance (km) Brightness Sun altitude
Rises 14:07:07 0° 350° (N) 3,039 7.8 43.9°
Reaches altitude 10° 14:09:52 10° 6° (N) 2,178 7.1 43.5°
Maximum altitude 14:13:41 22° 57° (ENE) 1,606 6.5 43.0°
Drops below altitude 10° 14:17:43 10° 106° (ESE) 2,337 7.4 42.4°
Sets 14:20:47 0° 121° (ESE) 3,326 8.2 41.9°
